Other Public Products
Issued by NWS Grand Forks, ND

Home | Current Version | Previous Version | Text Only | Print | Product List | Glossary Off
Versions: 1 2 3 4 5 6 7 8 9 10 11 12 13 14 15 16 17 18 19 20 21 22 23 24 25 26 27 28 29 30 31 32 33 34 35 36 37 38 39 40 41 42 43 44 45 46 47 48 49 50

000
FPUS83 KFGF 030831
OPUFGF
PRAIRIE TO PINES WEATHER ROUNDUP
NATIONAL WEATHER SERVICE EASTERN NORTH DAKOTA/GRAND FORKS ND
200 AM CST SAT DEC 03 2016

 **SATELLITE DATA USED TO AUGMENT SKY COVER AT AUTOMATED STATIONS**
 *****  WEATHER ACROSS EASTERN NORTH DAKOTA  *****

CITY           SKY/WX    TMP DP  RH WIND       PRES   REMARKS
GRAND FORKS    CLOUDY    29  21  72 S9        30.23  WCI  20
GRAND FORKS AF CLOUDY    28  20  72 SW7       30.22F WCI  21
GRAND CITY NWS   N/A     28 N/A N/A S15         N/A  WCI  17
BUXTON           N/A     43  37  78 S5          N/A
DEVILS LAKE    NOT AVBL
FARGO          CLOUDY    27  18  69 SW10      30.28  WCI  17
WAHPETON ARPT  CLOUDY    27  19  74 SW7       30.29S WCI  19
$$

 *****  WEATHER ACROSS CENTRAL AND WESTERN NORTH DAKOTA  *****

CITY           SKY/WX    TMP DP  RH WIND       PRES   REMARKS
JAMESTOWN      CLOUDY    25  21  85 S9        30.18F WCI  15
BISMARCK       CLEAR     21  21 100 S8        30.13F WCI  11
MINOT          CLEAR     21  19  92 SE8       30.03F WCI  11
MINOT AFB      CLEAR     20  18  91 SE12      30.02F WCI   9
GARRISON         N/A     25  23  92 S12       30.05F WCI  14
WILLISTON      CLEAR     24  20  84 S5        29.96F WCI  18
DICKINSON      CLEAR     18  15  88 S13       29.99F WCI   5
HETTINGER      CLEAR     23  21  92 S12       30.04  WCI  12
$$

 *****  OTHER OBSERVATIONS NORTHEAST NORTH DAKOTA  *****

CITY           SKY/WX    TMP DP  RH WIND       PRES   REMARKS
WALHALLA         N/A     27  27 100 S5        30.19F WCI  21
LANGDON        CLOUDY    25  23  93 S13       30.14S WCI  13
CAVALIER         N/A     28  25  86 S9        30.19F WCI  20
GRAFTON        CLOUDY    28  23  80 S9        30.23S WCI  20
CANDO          CLOUDY    27  23  86 S14       30.15F WCI  15
FORT TOTTEN      N/A     23  20  89 S8        29.95S WCI  14
ROLLA          CLOUDY    23  23 100 S12       30.08F WCI  12
RUGBY            N/A     25  23  93 S9        30.09F WCI  15
 ***** THE ABOVE OBSERVATIONS ARE NON NWS ARE NOT QUALITY
        CONTROLLED AND MAY MIS-REPORT RAIN FOR SNOW...
$$

 *****  OTHER OBSERVATIONS SOUTHEAST NORTH DAKOTA *****

CITY           SKY/WX    TMP DP  RH WIND       PRES   REMARKS
COOPERSTOWN    PTSUNNY   19  18  93 S8        30.20F WCI   9
VALLEY CITY    CLOUDY    23  23 100 S7        30.23F WCI  15
OAKES          NOT AVBL
GWINNER        PTSUNNY   25  21  86 S5        30.25F WCI  19
SHEYENNE NWR     N/A     26  19  74 SW7       29.95S WCI  18
BUFFALO          N/A     25  16  68 S5          N/A  WCI  19
WYNDMERE         N/A     27  19  74 SW7         N/A  WCI  19
 ***** THE ABOVE OBSERVATIONS ARE NON NWS ARE NOT QUALITY
       CONTROLLED AND MAY MIS-REPORT RAIN FOR SNOW...
$$

  *****  WEATHER ACROSS NORTHERN MINNESOTA  *****

CITY           SKY/WX    TMP DP  RH WIND       PRES   REMARKS
FLAG ISLAND    CLOUDY    25  21  86 SW7       30.22S WCI  17
WARROAD        CLOUDY    25  19  80 S3        30.23S
ROSEAU         CLOUDY    27  21  80 SE6       30.22F WCI  20
HALLOCK        CLOUDY    30  27  86 S7        30.21F WCI  23
THF RVR FALLS  NOT AVBL
HALSTAD          N/A     26  19  75 SW9         N/A  WCI  17
FOSSTON        CLOUDY    25  18  74 S5        30.24S WCI  19
BAUDETTE       CLOUDY    24  20  84 S5        30.23  WCI  18
WASKISH        CLOUDY    25  21  86 CALM      30.24S
CROOKSTON      CLOUDY    28  21  74 S8        30.25F WCI  20
$$
  *****  WEATHER ACROSS CENTRAL AND WEST MINNESOTA  *****

CITY           SKY/WX    TMP DP  RH WIND       PRES   REMARKS
BEMIDJI        CLOUDY    25  19  78 W3        30.24S
PARK RAPIDS    CLOUDY    25  16  68 SW7       30.24  WCI  17
WADENA         CLOUDY    25  18  74 CALM      30.25F
DETROIT LAKES  CLOUDY    27  21  80 S8        30.26R WCI  18
MOORHEAD       CLOUDY    25  18  74 SW7       30.29R WCI  17
FERGUS FALLS   CLOUDY    25  18  74 SW5       30.32S WCI  19
ELBOW LAKE     CLOUDY    25  20  82 CALM      30.29S
MORRIS MN      CLOUDY    27  19  74 W7        30.29S WCI  19
STAPLES        CLOUDY    23  18  80 CALM      30.26F
WHEATON        CLOUDY   N/A N/A N/A SW5       30.31
$$
  *****  WEATHER ELSEWHERE ACROSS MINNESOTA  *****

CITY           SKY/WX    TMP DP  RH WIND       PRES   REMARKS
DULUTH         NOT AVBL
INTRNTL FALLS  NOT AVBL
ELY            CLOUDY    25  23  93 CALM      30.23S
CLOQUET        CLOUDY    27  21  80 W6        30.25S WCI  20
BRAINERD       CLOUDY    25  20  81 NW3       30.27S
HIBBING        CLOUDY    24  21  88 VRB5      30.24  WCI  18
ALEXANDRIA     CLOUDY    25  18  74 SW3       30.28
SAINT CLOUD    CLOUDY    29  24  82 CALM      30.28
MINNEAPOLIS    CLOUDY    30  22  72 SW7       30.30  WCI  23
$$

  *****  WEATHER ACROSS SOUTH DAKOTA  *****

CITY           SKY/WX    TMP DP  RH WIND       PRES   REMARKS
SIOUX FALLS    MOCLDY    28  24  85 SW3       30.29S
BROOKINGS      PTCLDY    21  16  79 CALM      30.26F
WATERTOWN      CLOUDY    24  17  74 W7        30.24  WCI  16
HURON          MOCLDY    26  25  96 SE8       30.25F WCI  18
SISSETON         N/A     27  19  72 CALM      30.27F
ABERDEEN       CLOUDY    27  22  81 SE8       30.24  WCI  19
MITCHELL       CLEAR     26  24  92 S7        30.28  WCI  18
PIERRE         CLEAR     20  18  92 SE8       30.18F WCI  10
MOBRIDGE       CLOUDY    27  25  92 S13       30.13F FOG     WCI  16
RAPID CITY     CLEAR     18  15  88 SE7       30.06F WCI   9
$$

  *****  SOME WEATHER IN NEARBY STATES *****

CITY           SKY/WX    TMP DP  RH WIND       PRES   REMARKS
GLASGOW MT     NOT AVBL
GREAT FALLS MT NOT AVBL
CHEYENNE WY    CLOUDY    19  16  88 SW8       30.06F WCI   9
SCOTTSBLUFF NE NOT AVBL
OMAHA NE       MOCLDY    25  21  85 SE7       30.37S WCI  17
DES MOINES IA  CLOUDY    36  31  82 S5        30.36S
DAVENPORT IA   CLOUDY    32  26  78 W8        30.37R WCI  25
CHICAGO IL     CLOUDY    33  23  66 W7        30.31S
EAU CLAIRE WI  CLOUDY    30  26  85 W8        30.28S WCI  22
LA CROSSE WI   CLOUDY    32  22  66 SW8       30.32  WCI  25
$$

  *****  SOME NATIONAL WEATHER *****

CITY           SKY/WX    TMP DP  RH WIND       PRES   REMARKS
LA GUARDIA NY  MOCLDY    46  30  53 W15G24    29.93R
RALEIGH NC     PTCLDY    43  29  57 VRB7      30.23R
ATLANTA GA     MOCLDY    44  34  67 NW9       30.24S
NEW ORLEANS LA CLOUDY    57  50  77 E9        30.15S
OKLAHOMA CITY  MOCLDY    46  44  93 NE9       30.20F
ALBUQUERQUE NM CLOUDY    33  28  81 E22G35    30.11R WCI  21
SALT LAKE CITY NOT AVBL
LOS ANGELES CA CLEAR     56  13  18 S7        30.09R
BOISE ID       NOT AVBL
SEATTLE WA     CLOUDY    47  44  90 S13       30.19R
$$

*** WEATHER ACROSS MANITOBA...SASKATCHEWAN AND ONTARIO ***
                ***ONTARIO***

CITY           SKY/WX    TMP DP  RH WIND       PRES   REMARKS
GERALDTON      FRZ DRZL  21  21 100 W2        30.20R
THUNDER BAY    MOCLDY    28  25  86 SW2       30.25R
SIOUX LOOKOUT  FRZ DRZL  23  21  93 CALM      30.21S
TORONTO        PTCLDY    36  28  75 NW13      30.08R
BIG TROUT LK   FLURRIES  12  10  92 W5        30.26F WCI   4
PICKLE LAKE    NOT AVBL
DRYDEN         FLURRIES  21  21 100 SW6       30.20S WCI  14
KENORA         LGT SNOW  18  18 100 CALM      30.21F FOG
$$
                *** MANITOBA***

CITY           SKY/WX    TMP DP  RH WIND       PRES   REMARKS
BRANDON        FLURRIES  27  23  86 SE10      30.07F WCI  17
DAUPHIN        CLOUDY    28  25  86 E7        30.05F WCI  21
ISLAND LAKE    NOT AVBL
PILOT MOUND      N/A     25  21  86 S16         N/A  WCI  12
THE PAS        CLOUDY    28  27  93 SE10      30.01F WCI  19
THOMPSON       FLURRIES  16  14  93 SE2       30.12F
WINNIPEG       FLURRIES  27  23  86 S10       30.19F WCI  17
LYNN LAKE      CLOUDY    19  18  93 S8        29.98F WCI   9
CHURCHILL      CLEAR      1  -2  85 SW8       30.15F WCI -12
GILLAM         LGT SNOW   9   5  85 SW8       30.21S WCI  -4
$$
                ***SASKATCHEWAN***

CITY           SKY/WX    TMP DP  RH WIND       PRES   REMARKS
ESTEVAN        PTCLDY    21  19  93 S13       29.93F WCI   9
KINDERSLEY     CLOUDY    23  21  93 E8        29.64F WCI  14
LLOYDMINSTER   CLOUDY    23  21  93 SE13G18   29.69F WCI  11
PRINCE ALBERT  FLURRIES  27  21  80 S9        29.85F WCI  17
REGINA         PTCLDY    19  19 100 SE14      29.83F WCI   6
YORKTON        CLOUDY    27  25  93 SE13      29.92F FOC1F1C2F2C3F3C4F4C5F5C6F6C7F7C8F8C9F9CaFaCbFbCcFcCdFdCe!



USA.gov is the U.S. government's official web portal to all federal, state and local government web resources and services.